Flag for Thailand Weather past 2 weeks in Khon Kaen, Thailand

Now
79 °F

Broken clouds.


Feels Like: 82 °F
Forecast: 77 / 89 °F
Wind: 3 mph from South

Location: Khon Kaen Airport

Current Time: Sep 1, 2015 at 12:08:38 PM

Latest Report: Sep 1, 2015 at 11:00 AM


Visibility: N/A

Pressure: 29.77 "Hg

Humidity: 89%

Dew point: 75 °F

Location of Khon KaenLocation

Historic Weather in Khon Kaen — Graph

°F

Khon Kaen temperature yesterday

Maximum temperature yesterday: 82 °F (at 1:00 PM)
Minimum temperature yesterday: 77 °F (at 3:00 AM)
Average temperature yesterday: 79 °F

Past Weeks' High & Low Weather Summary

 TemperatureHumidityPressure
High97 °F (Aug 19, 4:00 PM)94% (Aug 18, 1:00 AM)29.86 "Hg (Aug 18, 1:00 AM)
Low75 °F (Aug 21, 1:00 AM)42% (Aug 19, 4:00 PM)29.59 "Hg (Aug 22, 5:00 PM)
Average83 °F75%29.74 "Hg
* Reported Aug 17 10:00 AM — Sep 1 10:00 AM, Khon Kaen, Weather by CustomWeather, © 2015

Note: Actual official high and low records may vary slightly from our data, if they occured in-between our weather recording intervals... More about our weather records

Advertising

Khon Kaen weather history for previous 24 hours

 ConditionsComfort  
Time TempWeatherWind HumidityBarometerVisibility
10:00 AM
Tue, Sep 1
79 °FBroken clouds.5 mph84%29.77 "HgN/A
9:00 AM79 °FPartly sunny.5 mph84%29.77 "HgN/A
8:00 AM79 °FPartly sunny.5 mph84%29.74 "HgN/A
7:00 AM77 °FPartly sunny.2 mph83%29.71 "HgN/A
6:00 AM75 °FPartly sunny.5 mph89%29.71 "HgN/A
5:00 AM77 °FPassing clouds.5 mph89%29.71 "HgN/A
4:00 AM77 °FPassing clouds.5 mph89%29.71 "HgN/A
3:00 AM77 °FPassing clouds.5 mph89%29.71 "HgN/A
2:00 AM77 °FPassing clouds.6 mph94%29.74 "HgN/A
1:00 AM77 °FPassing clouds.5 mph94%29.77 "HgN/A
12:00 AM77 °FPassing clouds.5 mph94%29.80 "HgN/A
11:00 PM
Mon, Aug 31
77 °FLight rain. Passing clouds.3 mph94%29.80 "HgN/A
10:00 PM77 °FLight rain. Passing clouds.3 mph94%29.80 "HgN/A
9:00 PM79 °FPassing clouds.5 mph84%29.77 "HgN/A
8:00 PM81 °FPassing clouds.5 mph79%29.74 "HgN/A
7:00 PM81 °FPassing clouds.3 mph79%29.74 "HgN/A
6:00 PM81 °FPartly sunny.5 mph84%29.71 "HgN/A
5:00 PM81 °FPartly sunny.5 mph84%29.71 "HgN/A
4:00 PM81 °FPartly sunny.5 mph84%29.71 "HgN/A
3:00 PM81 °FMore clouds than sun.6 mph84%29.74 "HgN/A
2:00 PM82 °FMore clouds than sun.5 mph79%29.77 "HgN/A
1:00 PM82 °FOvercast.6 mph79%29.80 "HgN/A
12:00 PM81 °FLight rain. Overcast.5 mph84%29.80 "Hg6 mi
Weather by CustomWeather, © 2015

See weather overviewHow to use our weather pages